TimeAKDT,TemperatureF,Dew PointF,Humidity,Sea Level PressureIn,VisibilityMPH,Wind Direction,Wind SpeedMPH,Gust SpeedMPH,PrecipitationIn,Events,Conditions,WindDirDegrees,DateUTC
12:53 AM,30.9,19.0,61,29.75,10.0,WNW,11.5,-,N/A,,Clear,290,2012-10-18 08:53:00
1:53 AM,30.9,19.9,64,29.76,10.0,WNW,6.9,-,N/A,,Clear,290,2012-10-18 09:53:00
2:53 AM,28.9,19.0,67,29.76,10.0,Calm,Calm,-,N/A,,Clear,0,2012-10-18 10:53:00
3:53 AM,28.9,19.0,67,29.76,10.0,Calm,Calm,-,N/A,,Clear,0,2012-10-18 11:53:00
4:53 AM,27.0,19.9,75,29.76,10.0,Calm,Calm,-,N/A,,Clear,0,2012-10-18 12:53:00
5:53 AM,30.0,21.0,69,29.76,10.0,West,5.8,-,N/A,,Clear,280,2012-10-18 13:53:00
6:53 AM,30.0,19.9,66,29.76,10.0,West,5.8,-,N/A,,Clear,280,2012-10-18 14:53:00
7:53 AM,30.0,19.9,66,29.77,10.0,NW,9.2,-,N/A,,Partly Cloudy,310,2012-10-18 15:53:00
8:53 AM,30.0,19.0,64,29.78,10.0,WNW,13.8,-,N/A,,Partly Cloudy,300,2012-10-18 16:53:00
9:53 AM,32.0,19.0,59,29.79,10.0,WNW,13.8,17.3,N/A,,Partly Cloudy,290,2012-10-18 17:53:00
10:53 AM,34.0,19.9,56,29.81,10.0,WNW,6.9,-,N/A,,Clear,300,2012-10-18 18:53:00
11:53 AM,35.1,21.0,57,29.81,10.0,West,6.9,-,N/A,,Partly Cloudy,280,2012-10-18 19:53:00
12:53 PM,36.0,21.0,55,29.81,10.0,West,13.8,21.9,N/A,,Partly Cloudy,270,2012-10-18 20:53:00
1:53 PM,37.0,19.9,50,29.82,10.0,WNW,13.8,20.7,N/A,,Partly Cloudy,290,2012-10-18 21:53:00
2:53 PM,37.9,21.0,51,29.81,10.0,West,12.7,21.9,N/A,,Partly Cloudy,280,2012-10-18 22:53:00
3:53 PM,37.9,19.9,48,29.81,10.0,West,17.3,-,N/A,,Partly Cloudy,280,2012-10-18 23:53:00
4:53 PM,37.0,21.0,52,29.81,10.0,West,15.0,20.7,N/A,,Mostly Cloudy,280,2012-10-19 00:53:00
5:53 PM,36.0,21.0,55,29.81,10.0,WNW,16.1,21.9,N/A,,Scattered Clouds,290,2012-10-19 01:53:00
6:53 PM,34.0,19.9,56,29.81,10.0,WNW,13.8,23.0,N/A,,Scattered Clouds,300,2012-10-19 02:53:00
7:53 PM,33.1,19.9,59,29.81,10.0,WNW,13.8,-,N/A,,Partly Cloudy,290,2012-10-19 03:53:00
8:53 PM,32.0,19.9,61,29.81,10.0,WNW,18.4,28.8,N/A,,Partly Cloudy,300,2012-10-19 04:53:00
9:53 PM,33.1,19.9,59,29.81,10.0,WNW,18.4,29.9,N/A,,Partly Cloudy,300,2012-10-19 05:53:00
10:53 PM,33.1,19.0,56,29.81,10.0,WNW,25.3,34.5,N/A,,Clear,300,2012-10-19 06:53:00
11:53 PM,33.1,19.0,56,29.83,10.0,WNW,19.6,31.1,N/A,,Clear,300,2012-10-19 07:53:00